Change the Weather History Date:

Friday, April 12, 2013

  Actual Average Record
Temperature  
Mean Temperature 62 °F 52 °F  
Max Temperature 75 °F 63 °F 84 °F (1977)
Min Temperature 49 °F 41 °F 23 °F (1976)
Degree Days  
Heating Degree Days 3 14  
Month to date heating degree days 141 186  
Since 1 July heating degree days 4613 4787  
Cooling Degree Days 0 0  
Month to date cooling degree days 21 0  
Year to date cooling degree days 21 2  
Growing Degree Days 12 (Base 50)    
Moisture  
Dew Point 49 °F    
Average Humidity 62    
Maximum Humidity 93    
Minimum Humidity 31    
Precipitation  
Precipitation 0.34 in 0.12 in 1.37 in (1981)
Month to date precipitation 0.34 1.42  
Year to date precipitation 7.29 10.48  
Sea Level Pressure  
Sea Level Pressure 29.65 in    
Wind  
Wind Speed 8 mph (SW)    
Max Wind Speed 18 mph    
Max Gust Speed 28 mph    
Visibility 9 miles    
Events Rain    
T = Trace of Precipitation, MM = Missing Value Source: NWS Daily Summary

Daily Weather History Graph

Daily Weather History Graph

Search for Another Location

Airport or City:

Trip Planner

Search our weather history database for the weather conditions in past years. The results will help you decide how hot, cold, wet, or windy it might be!

Date:

Astronomy

Apr. 12, 2013 Rise Set
Actual Time 6:46 AM EDT 7:54 PM EDT
Civil Twilight 6:18 AM EDT 8:22 PM EDT
Nautical Twilight 5:45 AM EDT 8:55 PM EDT
Astronomical Twilight 5:11 AM EDT 9:30 PM EDT
Moon 7:55 AM EDT (4/12) 10:23 PM EDT (4/12)
Length of Visible Light 14h 04m
Length of Day
13h 08m
Waxing Crescent, 5% of the Moon is Illuminated
Apr 12
Waxing Crescent
Apr 18
First Quarter
Apr 25
Full
May 2
Last Quarter
May 9
New

Hourly Weather History & Observations

Time (EDT) Temp. Dew Point Humidity Pressure Visibility Wind Dir Wind Speed Gust Speed Precip Events Conditions
12:53 AM 75.0 °F 50.0 °F 41% 29.57 in 10.0 mi South 8.1 mph - N/A   Overcast
1:53 AM 73.9 °F 51.1 °F 45% 29.55 in 10.0 mi South 9.2 mph 21.9 mph N/A   Mostly Cloudy
2:53 AM 73.0 °F 54.0 °F 51% 29.54 in 10.0 mi South 11.5 mph 18.4 mph 0.00 in Rain Light Rain
3:49 AM 64.4 °F 60.8 °F 88% 29.58 in 5.0 mi WSW 5.8 mph - 0.07 in Rain Light Rain
3:53 AM 64.9 °F 60.1 °F 84% 29.55 in 6.0 mi Variable 5.8 mph - 0.07 in Rain Light Rain
4:05 AM 62.6 °F 60.8 °F 94% 29.60 in 2.5 mi SSW 5.8 mph - 0.07 in Rain Heavy Rain
4:19 AM 62.6 °F 60.8 °F 94% 29.59 in 3.0 mi South 5.8 mph - 0.12 in Rain Rain
4:53 AM 62.1 °F 60.1 °F 93% 29.57 in 7.0 mi South 6.9 mph - 0.13 in Rain Light Rain
5:53 AM 62.1 °F 57.9 °F 86% 29.57 in 7.0 mi South 8.1 mph - 0.11 in Rain Light Rain
6:53 AM 62.1 °F 55.9 °F 80% 29.53 in 10.0 mi SSE 11.5 mph 18.4 mph 0.03 in Rain Light Rain
7:53 AM 62.1 °F 57.0 °F 84% 29.54 in 10.0 mi SSW 8.1 mph 16.1 mph 0.00 in   Overcast
8:53 AM 64.0 °F 55.9 °F 75% 29.56 in 10.0 mi SSW 9.2 mph 16.1 mph N/A   Overcast
9:53 AM 64.9 °F 55.9 °F 73% 29.58 in 10.0 mi SW 11.5 mph 23.0 mph N/A   Overcast
10:53 AM 64.9 °F 57.0 °F 75% 29.60 in 10.0 mi SW 9.2 mph - 0.00 in   Overcast
11:25 AM 64.4 °F 53.6 °F 68% 29.64 in 10.0 mi WSW 9.2 mph 18.4 mph N/A   Overcast
11:41 AM 62.6 °F 51.8 °F 68% 29.66 in 10.0 mi SW 16.1 mph 25.3 mph N/A   Overcast
11:53 AM 63.0 °F 53.1 °F 70% 29.64 in 10.0 mi SSW 10.4 mph - N/A   Overcast
12:53 PM 59.0 °F 52.0 °F 78% 29.66 in 10.0 mi WSW 8.1 mph 21.9 mph 0.00 in Rain Light Rain
1:53 PM 63.0 °F 48.9 °F 60% 29.65 in 10.0 mi West 6.9 mph - N/A   Mostly Cloudy
2:11 PM 64.4 °F 50.0 °F 59% 29.67 in 10.0 mi SW 8.1 mph - N/A   Mostly Cloudy
2:53 PM 66.0 °F 44.1 °F 45% 29.64 in 10.0 mi SW 12.7 mph 23.0 mph N/A   Partly Cloudy
3:53 PM 66.9 °F 41.0 °F 39% 29.64 in 10.0 mi SW 11.5 mph 18.4 mph N/A   Partly Cloudy
4:53 PM 66.0 °F 37.0 °F 34% 29.65 in 10.0 mi WSW 10.4 mph 24.2 mph N/A   Scattered Clouds
5:53 PM 64.9 °F 34.0 °F 32% 29.68 in 10.0 mi West 9.2 mph 23.0 mph N/A   Partly Cloudy
6:53 PM 61.0 °F 37.0 °F 41% 29.72 in 10.0 mi WNW 15.0 mph 23.0 mph N/A   Clear
7:53 PM 55.9 °F 35.1 °F 45% 29.78 in 10.0 mi WNW 9.2 mph 19.6 mph N/A   Partly Cloudy
8:53 PM 53.1 °F 33.1 °F 47% 29.83 in 10.0 mi WNW 3.5 mph - N/A   Mostly Cloudy
9:53 PM 50.0 °F 35.1 °F 57% 29.86 in 10.0 mi Calm Calm - N/A   Overcast
10:53 PM 51.1 °F 35.1 °F 54% 29.86 in 10.0 mi Variable 3.5 mph - N/A   Overcast
11:53 PM 51.1 °F 33.1 °F 50% 29.86 in 10.0 mi WNW 4.6 mph - N/A   Overcast